KT2UU-13 Weather Reports


Display with metric or nautical units.
time (UTC)temp
F
wind
direction
speed
MPH
gust
MPH
rain 1hr
in
rain 24hr
in
rain mn
in
humidity
%
barometer
mb
20260831065527 71 210 0.0 0.0 0.00 0.00 0.00 99 1021.2
20260831065021 71 210 0.0 0.0 0.00 0.00 0.00 98 1020.9
20260831064517 72 210 0.0 0.0 0.00 0.00 0.00 98 1021.0
20260831064012 72 210 0.0 0.0 0.00 0.00 0.00 98 1021.1
20260831063508 72 210 0.0 0.0 0.00 0.00 0.00 97 1020.9
20260831063008 72 210 0.0 0.0 0.00 0.00 0.00 97 1021.0
20260831062503 72 210 0.0 0.0 0.00 0.00 0.00 97 1021.0
20260831062002 73 210 0.0 0.0 0.00 0.00 0.00 96 1021.0
20260831061500 73 203 0.0 0.0 0.00 0.00 0.00 96 1021.0
20260831060956 73 210 0.0 0.0 0.00 0.00 0.00 96 1020.9
20260831060451 73 210 0.0 0.0 0.00 0.00 0.00 95 1020.8
20260831055951 73 210 0.0 0.0 0.00 0.00 0.00 95 1021.0
20260831055446 73 210 0.0 0.0 0.00 0.00 0.00 94 1021.0
20260831054941 74 210 0.0 0.0 0.00 0.00 0.00 94 1020.9
20260831054436 74 210 0.0 0.0 0.00 0.00 0.00 93 1020.9
20260831053935 74 210 0.0 0.0 0.00 0.00 0.00 92 1021.2
20260831053433 75 210 0.0 0.0 0.00 0.00 0.00 91 1021.0
20260831052928 75 210 0.0 0.0 0.00 0.00 0.00 90 1021.1
20260831052428 76 210 0.0 0.0 0.00 0.00 0.00 90 1020.9
20260831051926 76 210 0.0 0.0 0.00 0.00 0.00 89 1020.9
20260831051425 76 210 1.0 2.0 0.00 0.00 0.00 88 1021.1
20260831050919 76 210 1.0 2.0 0.00 0.00 0.00 87 1021.1
20260831050414 76 210 1.0 2.0 0.00 0.00 0.00 87 1020.9
20260831045913 77 210 1.0 2.0 0.00 0.00 0.00 87 1021.0
20260831045412 76 210 1.0 2.0 0.00 0.00 0.00 87 1020.9
20260831044907 77 210 1.0 2.0 0.00 0.00 0.00 87 1020.8
20260831044402 77 210 1.0 2.0 0.00 0.00 0.00 87 1020.8
20260831043858 76 210 1.0 2.0 0.00 0.00 0.00 87 1021.0
20260831043357 77 210 1.0 2.0 0.00 0.00 0.00 87 1020.9
20260831042853 77 210 1.0 2.0 0.00 0.00 0.00 87 1021.0
20260831042352 77 210 0.0 0.0 0.00 0.00 0.00 87 1020.9
20260831041847 77 210 1.0 3.0 0.00 0.00 0.00 86 1021.1
20260831041347 77 210 0.0 1.0 0.00 0.00 0.00 86 1021.1
20260831040842 77 210 2.0 3.0 0.00 0.00 0.00 87 1021.1
20260831040336 77 210 1.0 2.0 0.00 0.00 0.00 86 1021.1
20260831035834 77 210 0.0 1.0 0.00 0.00 0.00 86 1020.9
20260831035333 77 210 1.0 2.0 0.00 0.00 0.00 87 1020.8
20260831034828 77 210 1.0 2.0 0.00 0.00 0.00 86 1021.0
20260831034324 77 210 1.0 1.0 0.00 0.00 0.00 87 1021.1
20260831033818 77 210 1.0 2.0 0.00 0.00 0.00 86 1021.0
20260831033313 77 210 1.0 1.0 0.00 0.00 0.00 86 1021.1
20260831032809 77 210 0.0 0.0 0.00 0.00 0.00 87 1021.2
20260831032306 78 210 0.0 0.0 0.00 0.00 0.00 86 1021.3
20260831031758 78 210 0.0 1.0 0.00 0.00 0.00 86 1021.0
20260831031257 78 210 0.0 0.0 0.00 0.00 0.00 86 1021.1
20260831030753 78 210 0.0 2.0 0.00 0.00 0.00 86 1021.1
20260831030250 78 210 0.0 0.0 0.00 0.00 0.00 86 1021.0
20260831025750 78 210 0.0 2.0 0.00 0.00 0.00 85 1021.1
20260831025244 78 210 0.0 0.0 0.00 0.00 0.00 86 1021.0
20260831024740 78 210 1.0 1.0 0.00 0.00 0.00 85 1021.0
20260831024239 79 210 0.0 0.0 0.00 0.00 0.00 84 1021.0
20260831023738 79 210 1.0 2.0 0.00 0.00 0.00 84 1021.0
20260831023237 79 210 0.0 0.0 0.00 0.00 0.00 84 1020.8
20260831022732 79 205 0.0 0.0 0.00 0.00 0.00 84 1020.8
20260831022227 79 210 0.0 1.0 0.00 0.00 0.00 83 1020.9
20260831021727 79 210 0.0 1.0 0.00 0.00 0.00 84 1020.9
20260831021226 79 210 1.0 2.0 0.00 0.00 0.00 84 1021.0
20260831020723 79 210 1.0 2.0 0.00 0.00 0.00 84 1021.1
20260831020222 78 210 0.0 0.0 0.00 0.00 0.00 86 1020.9
20260831015718 77 210 0.0 0.0 0.00 0.00 0.00 88 1020.9
20260831015213 77 210 0.0 0.0 0.00 0.00 0.00 91 1020.8
20260831014708 77 210 0.0 0.0 0.00 0.00 0.00 93 1020.8
20260831014203 76 210 0.0 0.0 0.00 0.00 0.00 93 1020.7
20260831013659 76 210 0.0 0.0 0.00 0.00 0.00 93 1020.6
20260831013158 76 210 0.0 0.0 0.00 0.00 0.00 93 1020.7
20260831012653 76 210 0.0 0.0 0.00 0.00 0.00 93 1020.6
20260831012149 77 210 0.0 0.0 0.00 0.00 0.00 93 1020.5
20260831011647 77 210 0.0 0.0 0.00 0.00 0.00 93 1020.4
20260831011138 77 210 0.0 0.0 0.00 0.00 0.00 92 1020.3
20260831010634 77 210 0.0 0.0 0.00 0.00 0.00 90 1020.3
20260831010129 78 210 0.0 0.0 0.00 0.00 0.00 90 1020.3
20260831005629 78 210 0.0 0.0 0.00 0.00 0.00 90 1020.2
20260831005124 78 210 0.0 0.0 0.00 0.00 0.00 89 1020.1
20260831004620 78 210 0.0 0.0 0.00 0.00 0.00 90 1020.1
20260831004115 79 210 0.0 0.0 0.00 0.00 0.00 90 1019.9
20260831003611 79 210 0.0 0.0 0.00 0.00 0.00 89 1019.8
20260831003107 80 210 0.0 0.0 0.00 0.00 0.00 89 1019.9
20260831002605 80 210 0.0 0.0 0.00 0.00 0.00 89 1019.9
20260831002101 81 210 0.0 0.0 0.00 0.00 0.00 87 1019.9
20260831001556 81 210 0.0 0.0 0.00 0.00 0.00 86 1019.7
20260831001052 82 210 0.0 0.0 0.00 0.00 0.00 84 1019.7
20260831000549 83 210 0.0 0.0 0.00 0.00 0.00 80 1019.7
20260831000048 84 210 0.0 0.0 0.00 0.00 0.00 79 1019.7
20260830235547 85 210 0.0 0.0 0.00 0.00 0.00 78 1019.7
20260830235042 86 210 0.0 0.0 0.00 0.00 0.00 76 1019.7
20260830234537 86 210 0.0 0.0 0.00 0.00 0.00 76 1019.8
20260830234032 86 210 0.0 0.0 0.00 0.00 0.00 77 1019.8
20260830233527 85 210 0.0 0.0 0.00 0.00 0.00 76 1019.8
20260830233023 85 210 0.0 2.0 0.00 0.00 0.00 76 1019.6
20260830232519 85 210 0.0 1.0 0.00 0.00 0.00 76 1019.8
20260830232015 86 210 0.0 0.0 0.00 0.00 0.00 76 1019.7
20260830231511 85 211 0.0 0.0 0.00 0.00 0.00 76 1019.7
20260830231010 86 210 0.0 0.0 0.00 0.00 0.00 75 1019.9
20260830230505 86 211 0.0 0.0 0.00 0.00 0.00 75 1019.9
20260830230005 87 211 0.0 0.0 0.00 0.00 0.00 73 1019.8
20260830225501 87 210 0.0 0.0 0.00 0.00 0.00 69 1019.7
20260830225000 87 210 0.0 0.0 0.00 0.00 0.00 67 1019.6
20260830224458 87 210 0.0 0.0 0.00 0.00 0.00 68 1019.9
20260830223955 87 210 0.0 0.0 0.00 0.00 0.00 67 1019.7
20260830223452 87 210 0.0 0.0 0.00 0.00 0.00 66 1019.8
20260830222951 88 210 0.0 1.0 0.00 0.00 0.00 65 1019.8
20260830222446 90 211 0.0 1.0 0.00 0.00 0.00 64 1019.7
20260830221942 90 205 0.0 0.0 0.00 0.00 0.00 62 1019.7
20260830221438 90 205 2.0 2.0 0.00 0.00 0.00 61 1019.8
20260830220933 90 211 0.0 0.0 0.00 0.00 0.00 62 1020.0
20260830220428 89 211 0.0 0.0 0.00 0.00 0.00 62 1019.6
20260830215925 89 211 0.0 2.0 0.00 0.00 0.00 63 1019.7
20260830215420 89 211 0.0 0.0 0.00 0.00 0.00 62 1019.8
20260830214915 90 211 0.0 2.0 0.00 0.00 0.00 64 1019.7
20260830214410 89 211 0.0 0.0 0.00 0.00 0.00 64 1019.8
20260830213904 89 211 2.0 2.0 0.00 0.00 0.00 62 1019.9
20260830213359 89 211 0.0 3.0 0.00 0.00 0.00 64 1019.6
20260830212850 88 210 0.0 0.0 0.00 0.00 0.00 65 1019.6
20260830212346 88 210 0.0 3.0 0.00 0.00 0.00 64 1019.7
20260830211844 87 210 0.0 1.0 0.00 0.00 0.00 65 1019.6
20260830211338 87 210 0.0 1.0 0.00 0.00 0.00 65 1019.7
20260830210834 88 210 0.0 2.0 0.00 0.00 0.00 65 1019.9
20260830210333 89 210 4.0 6.0 0.00 0.00 0.00 62 1020.0
20260830205832 91 211 1.0 3.0 0.00 0.00 0.00 62 1019.9
20260830205331 91 211 1.0 1.0 0.00 0.00 0.00 58 1019.9
20260830204826 92 211 1.0 2.0 0.00 0.00 0.00 57 1020.1
20260830204325 91 211 1.0 2.0 0.00 0.00 0.00 59 1019.9
20260830203821 90 211 0.0 1.0 0.00 0.00 0.00 63 1019.9
20260830203317 89 211 0.0 3.0 0.00 0.00 0.00 63 1020.1
20260830202816 89 211 1.0 3.0 0.00 0.00 0.00 64 1020.1
20260830202312 90 211 0.0 1.0 0.00 0.00 0.00 62 1020.0
20260830201807 91 211 0.0 3.0 0.00 0.00 0.00 62 1020.1
20260830201301 89 211 0.0 0.0 0.00 0.00 0.00 62 1020.1
20260830200757 88 210 0.0 0.0 0.00 0.00 0.00 65 1020.3
20260830200256 89 210 0.0 1.0 0.00 0.00 0.00 63 1020.3
20260830195752 90 210 5.0 6.0 0.00 0.00 0.00 61 1020.2
20260830195251 90 210 0.0 1.0 0.00 0.00 0.00 61 1020.2
20260830194749 90 210 1.0 2.0 0.00 0.00 0.00 64 1020.5
20260830194244 89 211 2.0 6.0 0.00 0.00 0.00 63 1020.3
20260830193743 89 211 0.0 1.0 0.00 0.00 0.00 65 1020.4
20260830193238 89 211 1.0 1.0 0.00 0.00 0.00 66 1020.6
20260830192734 90 204 0.0 3.0 0.00 0.00 0.00 63 1020.5
20260830192228 90 210 0.0 0.0 0.00 0.00 0.00 63 1020.6
20260830191725 89 210 1.0 3.0 0.00 0.00 0.00 64 1020.5
20260830191224 90 210 1.0 2.0 0.00 0.00 0.00 63 1020.8
20260830190719 89 205 2.0 2.0 0.00 0.00 0.00 64 1021.0
20260830190214 88 210 0.0 3.0 0.00 0.00 0.00 66 1021.1
20260830185713 87 210 0.0 1.0 0.00 0.00 0.00 67 1021.2
20260830185209 89 210 0.0 4.0 0.00 0.00 0.00 68 1021.3
20260830184708 89 210 1.0 2.0 0.00 0.00 0.00 65 1021.2
20260830184207 88 210 0.0 0.0 0.00 0.00 0.00 66 1021.5
20260830183702 87 210 0.0 0.0 0.00 0.00 0.00 70 1021.4
20260830183158 87 210 2.0 3.0 0.00 0.00 0.00 67 1021.4
20260830182652 86 210 2.0 3.0 0.00 0.00 0.00 69 1021.9
20260830182149 85 210 0.0 0.0 0.00 0.00 0.00 71 1021.7
20260830181644 86 210 0.0 0.0 0.00 0.00 0.00 72 1021.8
20260830181139 88 210 0.0 1.0 0.00 0.00 0.00 69 1021.8
20260830180638 87 210 1.0 2.0 0.00 0.00 0.00 70 1022.1
20260830180133 87 210 0.0 1.0 0.00 0.00 0.00 72 1022.1
20260830175632 87 210 0.0 0.0 0.00 0.00 0.00 70 1022.2
20260830175127 87 205 0.0 2.0 0.00 0.00 0.00 73 1022.3
20260830174622 86 210 0.0 3.0 0.00 0.00 0.00 72 1022.3
20260830174118 87 210 1.0 3.0 0.00 0.00 0.00 72 1022.4
20260830173612 86 204 0.0 2.0 0.00 0.00 0.00 72 1022.5
20260830173108 85 210 0.0 2.0 0.00 0.00 0.00 74 1022.5
20260830172605 84 210 0.0 2.0 0.00 0.00 0.00 75 1022.6
20260830172101 85 210 1.0 4.0 0.00 0.00 0.00 73 1022.7
20260830171556 85 210 0.0 1.0 0.00 0.00 0.00 75 1022.9
20260830171050 83 210 0.0 3.0 0.00 0.00 0.00 77 1022.9
20260830170550 84 210 2.0 6.0 0.00 0.00 0.00 75 1022.9
20260830170044 85 210 0.0 3.0 0.00 0.00 0.00 76 1022.8
20260830165539 83 210 1.0 3.0 0.00 0.00 0.00 77 1023.0
20260830165035 83 210 0.0 0.0 0.00 0.00 0.00 78 1023.1
20260830164530 83 210 0.0 4.0 0.00 0.00 0.00 77 1023.0
20260830164021 84 210 2.0 4.0 0.00 0.00 0.00 76 1023.1
20260830163518 85 210 2.0 3.0 0.00 0.00 0.00 77 1023.0
20260830163016 84 210 0.0 1.0 0.00 0.00 0.00 79 1023.0
20260830162513 84 210 0.0 2.0 0.00 0.00 0.00 76 1023.0
20260830162013 84 210 1.0 4.0 0.00 0.00 0.00 76 1023.2
20260830161508 83 210 4.0 6.0 0.00 0.00 0.00 77 1023.2
20260830161002 84 210 1.0 6.0 0.00 0.00 0.00 78 1023.4
20260830160458 83 210 0.0 2.0 0.00 0.00 0.00 80 1023.4
20260830155953 83 210 0.0 2.0 0.00 0.00 0.00 79 1023.2
20260830155449 82 210 0.0 2.0 0.00 0.00 0.00 79 1023.6
20260830154944 84 210 2.0 6.0 0.00 0.00 0.00 79 1023.5
20260830154440 82 210 1.0 3.0 0.00 0.00 0.00 79 1023.5
20260830153936 81 204 2.0 4.0 0.00 0.00 0.00 80 1023.7
20260830153432 82 210 1.0 1.0 0.00 0.00 0.00 81 1023.4
20260830152931 82 210 0.0 3.0 0.00 0.00 0.00 82 1023.5
20260830152426 82 210 3.0 4.0 0.00 0.00 0.00 81 1023.7
20260830151919 82 210 2.0 7.0 0.00 0.00 0.00 82 1023.5
20260830151414 81 210 3.0 3.0 0.00 0.00 0.00 82 1023.4
20260830150909 81 210 1.0 4.0 0.00 0.00 0.00 83 1023.4
20260830150409 80 210 3.0 6.0 0.00 0.00 0.00 83 1023.4
20260830145902 81 210 1.0 4.0 0.00 0.00 0.00 82 1023.3
20260830145357 82 210 1.0 2.0 0.00 0.00 0.00 82 1023.5
20260830144852 81 210 0.0 2.0 0.00 0.00 0.00 85 1023.3
20260830144349 81 210 3.0 3.0 0.00 0.00 0.00 84 1023.4
20260830143844 81 210 2.0 6.0 0.00 0.00 0.00 85 1023.4
20260830143343 80 210 1.0 4.0 0.00 0.00 0.00 85 1023.5
20260830142838 79 204 3.0 4.0 0.00 0.00 0.00 88 1023.5
20260830142333 79 210 0.0 3.0 0.00 0.00 0.00 89 1023.4
20260830141828 80 210 1.0 3.0 0.00 0.00 0.00 88 1023.5
20260830141323 80 210 2.0 3.0 0.00 0.00 0.00 87 1023.6
20260830140818 80 210 0.0 1.0 0.00 0.00 0.00 88 1023.6
20260830140313 79 210 0.0 1.0 0.00 0.00 0.00 90 1023.5
20260830135807 79 210 2.0 3.0 0.00 0.00 0.00 90 1023.5
20260830135306 79 210 0.0 2.0 0.00 0.00 0.00 90 1023.6
20260830134759 78 210 0.0 3.0 0.00 0.00 0.00 90 1023.6
20260830134258 78 210 2.0 2.0 0.00 0.00 0.00 90 1023.4
20260830133754 78 210 0.0 2.0 0.00 0.00 0.00 91 1023.7
20260830133249 78 210 1.0 1.0 0.00 0.00 0.00 91 1023.7
20260830132745 77 210 2.0 3.0 0.00 0.00 0.00 92 1023.8
20260830132241 77 210 2.0 3.0 0.00 0.00 0.00 92 1023.7
20260830131739 76 210 1.0 3.0 0.00 0.00 0.00 93 1023.7
20260830131235 76 210 2.0 2.0 0.00 0.00 0.00 93 1023.7
20260830130730 76 210 1.0 3.0 0.00 0.00 0.00 94 1023.5
20260830130230 76 210 2.0 2.0 0.00 0.00 0.00 93 1023.5
20260830125724 76 210 2.0 2.0 0.00 0.00 0.00 93 1023.5
20260830125219 76 210 1.0 3.0 0.00 0.00 0.00 93 1023.6
20260830124717 76 204 0.0 0.0 0.00 0.00 0.00 92 1023.4
20260830124213 76 210 0.0 0.0 0.00 0.00 0.00 92 1023.4
20260830123709 76 210 0.0 0.0 0.00 0.00 0.00 93 1023.1
20260830123205 75 210 0.0 0.0 0.00 0.00 0.00 94 1023.2
20260830122702 74 210 0.0 0.0 0.00 0.00 0.00 95 1023.5
20260830122157 74 210 0.0 0.0 0.00 0.00 0.00 96 1023.2
20260830121653 73 210 0.0 0.0 0.00 0.00 0.00 97 1023.1
20260830121152 72 210 0.0 0.0 0.00 0.00 0.00 99 1023.3
20260830120647 72 210 0.0 0.0 0.00 0.00 0.00 99 1023.1
20260830120143 71 210 0.0 0.0 0.00 0.00 0.00 99 1023.0
20260830115639 71 210 0.0 0.0 0.00 0.00 0.00 99 1022.9
20260830115135 70 210 0.0 0.0 0.00 0.00 0.00 99 1022.9
20260830114632 70 210 0.0 0.0 0.00 0.00 0.00 99 1023.0
20260830114131 69 210 0.0 0.0 0.00 0.00 0.00 99 1022.8
20260830113626 69 210 0.0 0.0 0.00 0.00 0.00 99 1022.7
20260830113121 69 210 0.0 0.0 0.00 0.00 0.00 99 1022.6
20260830112612 69 210 0.0 0.0 0.00 0.00 0.00 99 1022.3
20260830112108 69 210 0.0 0.0 0.00 0.00 0.00 99 1022.5
20260830111603 70 210 0.0 0.0 0.00 0.00 0.00 99 1022.6
20260830111059 70 210 0.0 0.0 0.00 0.00 0.00 99 1022.5
20260830110558 69 210 0.0 0.0 0.00 0.00 0.00 99 1022.2
20260830110054 70 210 0.0 0.0 0.00 0.00 0.00 99 1022.3
20260830105549 70 210 0.0 0.0 0.00 0.00 0.00 99 1022.5
20260830105045 70 210 0.0 0.0 0.00 0.00 0.00 99 1022.3
20260830104541 70 210 0.0 0.0 0.00 0.00 0.00 99 1022.1
20260830104037 70 210 0.0 0.0 0.00 0.00 0.00 99 1022.0
20260830103532 70 210 0.0 0.0 0.00 0.00 0.00 99 1022.2
20260830103031 70 210 0.0 0.0 0.00 0.00 0.00 99 1022.2
20260830102531 70 210 0.0 0.0 0.00 0.00 0.00 99 1022.2
20260830102027 70 210 0.0 0.0 0.00 0.00 0.00 99 1022.1
20260830101522 70 210 0.0 0.0 0.00 0.00 0.00 99 1021.9
20260830101021 70 210 0.0 0.0 0.00 0.00 0.00 99 1022.0
20260830100516 70 210 0.0 0.0 0.00 0.00 0.00 99 1021.9
20260830100015 71 210 0.0 0.0 0.00 0.00 0.00 99 1022.0
20260830095511 71 210 0.0 0.0 0.00 0.00 0.00 99 1021.8
20260830095007 71 210 0.0 0.0 0.00 0.00 0.00 99 1021.9
20260830094503 71 210 0.0 0.0 0.00 0.00 0.00 99 1021.7
20260830093957 71 210 0.0 0.0 0.00 0.00 0.00 99 1021.8
20260830093453 71 210 0.0 0.0 0.00 0.00 0.00 99 1022.0
20260830092949 71 210 0.0 0.0 0.00 0.00 0.00 99 1021.8
20260830092444 71 210 0.0 0.0 0.00 0.00 0.00 99 1021.7
20260830091940 71 210 0.0 0.0 0.00 0.00 0.00 99 1021.8
20260830091435 71 210 0.0 0.0 0.00 0.00 0.00 99 1021.9
20260830090933 71 210 0.0 0.0 0.00 0.00 0.00 99 1021.7
20260830090429 71 210 0.0 0.0 0.00 0.00 0.00 99 1021.9
20260830085924 71 201 0.0 0.0 0.00 0.00 0.00 99 1021.8
20260830085419 70 209 0.0 0.0 0.00 0.00 0.00 99 1021.9
20260830084914 71 209 0.0 0.0 0.00 0.00 0.00 99 1022.0
20260830084409 71 209 0.0 0.0 0.00 0.00 0.00 99 1021.9
20260830083904 71 208 0.0 0.0 0.00 0.00 0.00 99 1021.9
20260830083400 71 200 0.0 0.0 0.00 0.00 0.00 99 1021.8
20260830082859 71 208 0.0 0.0 0.00 0.00 0.00 99 1021.9
20260830082355 71 208 0.0 0.0 0.00 0.00 0.00 99 1021.9
20260830081850 71 208 0.0 0.0 0.00 0.00 0.00 99 1021.8
20260830081345 71 208 0.0 0.0 0.00 0.00 0.00 99 1021.7
20260830080844 71 208 0.0 0.0 0.00 0.00 0.00 99 1021.8
20260830080341 71 208 0.0 0.0 0.00 0.00 0.00 99 1021.8
20260830075840 71 208 0.0 0.0 0.00 0.00 0.00 99 1021.8
20260830075336 71 208 0.0 0.0 0.00 0.00 0.00 99 1021.8
20260830074831 71 208 0.0 0.0 0.00 0.00 0.00 99 1021.6
20260830074326 71 208 0.0 0.0 0.00 0.00 0.00 99 1021.8
20260830073822 71 208 0.0 0.0 0.00 0.00 0.00 99 1021.5
20260830073318 71 208 0.0 0.0 0.00 0.00 0.00 99 1021.7
20260830072813 71 208 0.0 0.0 0.00 0.00 0.00 99 1021.6
20260830072308 72 208 0.0 0.0 0.00 0.00 0.00 99 1021.4
20260830071807 72 208 0.0 0.0 0.00 0.00 0.00 98 1021.7
20260830071302 72 208 0.0 0.0 0.00 0.00 0.00 98 1021.5
20260830070802 72 208 0.0 0.0 0.00 0.00 0.00 98 1021.2
20260830070256 72 208 0.0 0.0 0.00 0.00 0.00 97 1021.2
20260830065755 72 208 0.0 0.0 0.00 0.00 0.00 97 1021.5